sat.trackr.live / text

‹ back to catalog

STARLINK-3794

NORAD 52631 · 2022-052AK

PAYLOAD ACTIVE UNKNOWN

§ Identity

Operator
Country
US
Launch date
2022-05-14
Launch site
AFETR
Launch vehicle
Mass (kg)
RCS (m²)

Purposes: comms

External: N2YO · Heavens-Above · Gunter

§ Orbital elements

Epoch: 2026-09-20T03:24:15.593760Z

Period
93.85 min
Inclination
53.1601°
Eccentricity
0.0001149
Mean motion
15.34386270 rev/d
Perigee alt
462.0 km
Apogee alt
463.5 km
Semi-major
6,840.9 km
B*
1.4881e-5
RAAN
101.7020°
Arg perigee
98.3727°
Mean anomaly
261.7406°
Rev number
24,055

§ Raw data

STARLINK-37941 52631U 22052AK  26263.14184715  .00000126  00000+0  14881-4 0  99922 52631  53.1601 101.7020 0001149  98.3727 261.7406 15.34386270240558

JSON: /api/v1/satellites/52631 · /tle

For live sub-satellite position, see the globe view (requires WebGL).

§ Visibility from observer

Set your observer location to see the next 7 days of passes ≥ 10°. The values pass through the URL so the page stays shareable.

No JS? Fill the form by hand. The geolocation button needs JavaScript.